Flag for U.S.A. Weather past 2 weeks in Freehold, New Jersey, U.S.A.

Now
27 °F

Mostly cloudy.


Feels Like: 13 °F
Forecast: 21 / 28 °F
Wind: 18 mph from Northwest

Location: Belmar-Farmdale

Current Time: Jan 27, 2015 at 12:32:00 PM

Latest Report: Jan 27, 2015 at 11:55 AM


Visibility: 4 mi

Pressure: 29.66 "Hg

Humidity: 69%

Dew point: 18 °F

Location of FreeholdLocation

Historic Weather in Freehold — Graph

°F

Freehold temperature yesterday

Maximum temperature yesterday: 32 °F (at 12:35 AM)
Minimum temperature yesterday: 27 °F (at 6:55 AM)
Average temperature yesterday: 28 °F

Past Weeks' High & Low Weather Summary

 TemperatureHumidityPressure
High46 °F (Jan 18, 9:15 AM)87% (Jan 18, 8:55 AM)30.60 "Hg (Jan 18, 8:55 AM)
Low16 °F (Jan 17, 5:15 AM)26% (Jan 17, 2:35 PM)29.29 "Hg (Jan 24, 1:35 PM)
Average32 °F63%30.05 "Hg
* Reported Jan 12 11:15 AM — Jan 27 11:35 AM, Freehold, Weather by CustomWeather, © 2014

Note: Actual official high and low records may vary slightly from our data, if they occured in-between our weather recording intervals... More about our weather records

Advertising

Freehold weather history for previous 24 hours

 ConditionsComfort  
Time TempWeatherWind HumidityBarometerVisibility
11:35 AM
Jan 27
27 °FMostly cloudy.14 mph69%29.67 "Hg3 mi
11:15 AM25 °FOvercast.18 mph74%29.67 "Hg2 mi
10:55 AM25 °FOvercast.18 mph74%29.68 "Hg1 mi
10:35 AM25 °FOvercast.17 mph74%29.68 "Hg2 mi
10:15 AM25 °FOvercast.20 mph74%29.68 "Hg2 mi
9:55 AM25 °FMostly cloudy.17 mph69%29.68 "Hg2 mi
9:35 AM23 °FMostly cloudy.17 mph74%29.68 "Hg2 mi
9:15 AM23 °FMostly cloudy.21 mph74%29.68 "Hg2 mi
8:55 AM23 °FCloudy.20 mph68%29.68 "Hg2 mi
8:35 AM21 °FOvercast.16 mph74%29.67 "Hg2 mi
8:15 AM21 °FOvercast.18 mph74%29.67 "Hg2 mi
7:55 AM21 °FOvercast.21 mph74%29.67 "Hg2 mi
7:35 AM21 °FOvercast.17 mph74%29.66 "Hg2 mi
7:15 AM21 °FOvercast.18 mph74%29.65 "Hg2 mi
6:55 AM21 °FOvercast.20 mph68%29.65 "Hg2 mi
6:35 AM21 °FOvercast.17 mph74%29.64 "Hg2 mi
6:15 AM21 °FOvercast.16 mph74%29.64 "Hg2 mi
5:55 AM21 °FOvercast.18 mph68%29.63 "Hg2 mi
5:35 AM21 °FOvercast.16 mph74%29.63 "Hg1 mi
5:15 AM21 °FOvercast.18 mph74%29.63 "Hg1 mi
4:55 AM21 °FOvercast.18 mph80%29.63 "Hg1 mi
4:35 AM21 °FOvercast.15 mph80%29.63 "Hg1 mi
4:15 AM23 °FOvercast.16 mph74%29.63 "Hg1 mi
3:55 AM23 °FMostly cloudy.18 mph74%29.62 "Hg2 mi
3:35 AM23 °FMostly cloudy.14 mph74%29.63 "Hg2 mi
3:15 AM23 °FMostly cloudy.16 mph74%29.63 "Hg2 mi
2:55 AM25 °FMostly cloudy.14 mph74%29.63 "Hg2 mi
2:35 AM25 °FOvercast.14 mph74%29.63 "Hg2 mi
2:15 AM25 °FOvercast.15 mph74%29.63 "Hg2 mi
1:55 AM25 °FLow clouds.13 mph80%29.63 "Hg1 mi
1:35 AM27 °FLow clouds.16 mph74%29.63 "Hg1 mi
1:15 AM27 °FLow clouds.15 mph74%29.63 "Hg1 mi
12:55 AM27 °FOvercast.16 mph74%29.63 "Hg1 mi
12:35 AM27 °FOvercast.16 mph74%29.64 "Hg1 mi
12:15 AM27 °FMostly cloudy.17 mph74%29.64 "Hg2 mi
11:55 PM
Jan 26
27 °FOvercast.18 mph74%29.63 "Hg1 mi
11:15 PM27 °FOvercast.16 mph74%29.64 "Hg2 mi
10:55 PM27 °FOvercast.20 mph74%29.66 "Hg2 mi
10:35 PM27 °FMostly cloudy.16 mph74%29.67 "Hg2 mi
9:55 PM28 °FMostly cloudy.21 mph74%29.69 "Hg2 mi
9:35 PM28 °FMostly cloudy.21 mph74%29.70 "Hg2 mi
9:15 PM28 °FMostly cloudy.20 mph69%29.71 "Hg4 mi
8:55 PM28 °FOvercast.18 mph69%29.71 "Hg10 mi
8:35 PM28 °FOvercast.23 mph74%29.72 "Hg10 mi
8:15 PM28 °FOvercast.16 mph74%29.73 "Hg9 mi
7:55 PM28 °FMostly cloudy.18 mph74%29.73 "Hg2 mi
7:35 PM28 °FMostly cloudy.20 mph74%29.74 "Hg4 mi
6:55 PM28 °FOvercast.20 mph74%29.76 "Hg5 mi
6:35 PM28 °FOvercast.20 mph74%29.76 "Hg3 mi
6:15 PM28 °FLow clouds.21 mph74%29.76 "Hg4 mi
5:55 PM28 °FLow clouds.17 mph74%29.77 "Hg5 mi
5:35 PM28 °FLow clouds.16 mph74%29.77 "Hg4 mi
5:15 PM28 °FLow clouds.17 mph74%29.76 "Hg2 mi
4:55 PM28 °FLow clouds.16 mph74%29.76 "Hg2 mi
4:35 PM28 °FLow clouds.13 mph74%29.76 "Hg2 mi
2:55 PM27 °FOvercast.15 mph74%29.80 "Hg3 mi
2:35 PM27 °FOvercast.14 mph74%29.80 "Hg7 mi
2:15 PM27 °FOvercast.15 mph74%29.80 "Hg5 mi
1:55 PM27 °FOvercast.15 mph74%29.81 "Hg4 mi
1:35 PM27 °FOvercast.17 mph74%29.82 "Hg2 mi
1:15 PM27 °FOvercast.14 mph74%29.83 "Hg2 mi
12:55 PM28 °FOvercast.16 mph69%29.84 "Hg3 mi
12:35 PM28 °FOvercast.18 mph69%29.84 "Hg3 mi
12:15 PM28 °FLow clouds.17 mph69%29.83 "Hg2 mi
Weather by CustomWeather, © 2014

See weather overviewHow to use our weather pages